[[{"header":{"parameterUnit":"m.s-1","parameterCategory":1,"la1":30.2991,"la2":30.254,"lo1":-89.0895,"lo2":-89.0444,"dy":0.0017,"dx":0.0017,"nx":28,"ny":28,"refTime":"2024-08-18T03:00:00:Z","depth":0,"parameterNumber":2,"parameterNumberName":"U-component_of_WINDS"},"data":[0,0,0,0,0,0,0,0,0,0,0,0,0,0,0,0,0,0,0,0,0,0,0,0,0,0,0,0,0,0,0,0,0,0,0,0,0,0,0,0,0,0,0,0,0,0,0,0,0,0,0,0,0,0,0,0,0,0,5.1428,5.143,0,5.1586,5.1588,5.159,5.1489,5.1484,5.1479,5.1475,5.1643,5.1652,5.166,0,0,0,0,0,0,0,0,0,0,0,0,0,5.1044,5.1051,5.1428,5.143,5.1432,5.1586,5.1588,5.159,5.149,5.1484,5.1478,5.1473,5.164,5.165,5.1661,0,0,0,0,0,0,0,0,0,0,0,0,0,5.1207,5.1054,5.1428,5.14,5.1399,5.1586,5.1588,5.1591,5.1491,5.1484,5.1477,5.147,5.1637,5.1649,5.1663,5.1887,0,0,5.1703,5.1709,0,0,0,0,0,0,0,0,5.1198,5.1222,5.1402,5.1403,5.1402,5.151,5.1514,5.169,5.1493,5.1456,5.1475,5.1467,5.1605,5.162,5.1666,5.1894,5.1902,5.1704,5.1713,5.1718,5.1722,0,0,0,0,0,0,0,5.1187,5.1214,5.1491,5.1405,5.1405,5.1381,5.1397,5.1547,5.1569,5.1459,5.1452,5.1472,5.1604,5.1653,5.1669,5.1904,5.1704,5.1716,5.1724,5.1729,5.2322,5.233,0,0,0,0,0,0,5.1177,5.1205,5.1486,5.1496,5.128,5.1394,5.1411,5.1483,5.1567,5.1573,5.1478,5.1466,5.1634,5.1654,5.1675,5.1941,5.1718,5.1731,5.1738,5.2315,5.2324,5.2333,0,0,0,0,0,0,5.1169,5.1203,5.148,5.1349,5.1382,5.1408,5.1489,5.149,5.1539,5.1581,5.1585,5.1524,5.1629,5.1656,5.1834,5.1945,5.1737,5.1749,5.2306,5.2318,5.2328,5.2476,0,0,0,0,0,0,5.1159,5.1201,5.1285,5.1351,5.1389,5.1635,5.1496,5.1498,5.1562,5.1549,5.1625,5.1631,5.1626,5.1814,5.1847,5.196,5.1759,5.2296,5.2311,5.2325,5.2461,5.2491,5.2517,0,0,0,0,0,5.1145,5.1323,5.129,5.1325,5.1495,5.1642,5.1664,5.1652,5.1571,5.1657,5.1683,5.1629,5.1928,5.1833,5.1869,5.1988,5.2289,5.2307,5.2324,5.2449,5.2486,5.2516,0,0,0,0,0,0,5.1272,5.1331,5.1296,5.1499,5.1566,5.1624,5.1732,5.1691,5.1784,5.1768,5.1751,5.1769,5.1955,5.1989,5.1883,5.2208,5.2096,5.2121,5.2179,5.2214,5.2241,5.2229,5.177,0,0,0,0,0,5.1323,5.1436,5.1482,5.1657,5.1692,5.1707,5.177,5.1754,5.1824,5.1852,5.1892,5.1963,5.2072,5.2145,5.2248,5.2466,5.2481,5.2565,5.2593,5.2615,5.2638,5.2754,5.2791,5.239,5.239,5.239,0,0,5.1431,5.1477,5.155,5.1683,5.1733,5.1851,5.1731,5.1862,5.1949,5.1873,5.2042,5.2074,5.2152,5.235,5.2439,5.2384,5.2752,5.2638,5.2655,5.2666,5.2776,5.2813,5.2847,5.2402,5.24,5.2398,0,0,5.1687,5.1734,5.1883,5.1935,5.2011,5.2019,5.2056,5.212,5.2137,5.2306,5.2251,5.2356,5.2545,5.2602,5.2656,5.2932,5.2885,5.2966,5.3112,5.3225,5.3257,5.3284,5.3382,5.3417,5.2988,5.2989,5.2989,0,5.1812,5.1986,5.1967,5.21,5.216,5.2094,5.2246,5.2298,5.2405,5.2449,5.2385,5.262,5.2668,5.2878,5.2944,5.2991,5.3032,5.2957,5.3253,5.3281,5.3307,5.3399,5.3436,5.2998,5.2997,5.2996,5.2995,0,5.2135,5.2256,5.2369,5.247,5.2543,5.2686,5.2689,5.2766,5.2744,5.2759,5.2932,5.2986,5.3099,5.3147,5.3129,5.3355,5.3318,5.3255,5.3141,5.3355,5.3441,5.3477,5.3011,5.3008,5.3005,5.3003,0,0,5.2477,5.2564,5.2606,5.265,5.2728,5.2822,5.2962,5.3069,5.3134,5.321,5.3327,5.3487,5.3428,5.3489,5.3476,5.3576,5.3789,5.35,5.3501,5.3551,5.404,5.4087,5.4128,5.3758,5.3765,5.377,5.4033,0,5.2736,5.2977,5.2963,5.319,5.3301,5.3239,5.336,5.3422,5.3439,5.3537,5.3557,5.3671,5.3585,5.3621,5.3717,5.3743,5.3887,5.3724,5.3867,5.3872,5.3848,5.4173,5.4224,5.4469,5.4067,5.4073,5.4077,0,5.3072,5.3156,5.3393,5.3452,5.3498,5.3608,5.3703,5.3798,5.3866,5.3872,5.3939,5.3909,5.4051,5.3934,5.4128,5.4017,5.4075,5.4097,5.4106,5.4119,5.3987,5.4194,5.4547,5.4584,5.413,5.4126,5.4122,0,5.3296,5.3469,5.3632,5.3672,5.3746,5.3824,5.3859,5.392,5.3984,5.4069,5.4111,5.4212,5.4268,5.4347,5.4345,5.426,5.4542,5.4425,5.4551,5.4551,5.4613,5.461,5.498,5.4652,5.4652,5.4651,5.465,0,5.3587,5.3735,5.3733,5.3834,5.3997,5.398,5.4142,5.4168,5.4223,5.4328,5.4282,5.4382,5.4373,5.4475,5.4474,5.4635,5.4661,5.467,5.4668,5.4674,5.4672,5.4711,5.4694,5.4661,5.4659,5.4657,5.4655,0,5.3865,5.387,5.4044,5.4098,5.4116,5.4233,5.428,5.4376,5.4388,5.4522,5.4553,5.4573,5.469,5.4695,5.4831,5.4831,5.5025,5.5005,5.5002,5.4998,5.5123,5.5111,5.5531,5.5584,5.5223,5.5226,5.5229,0,5.405,5.4162,5.4227,5.4293,5.4331,5.4439,5.4503,5.4491,5.456,5.4645,5.4731,5.4842,5.4931,5.512,5.5149,5.5251,5.5233,5.5373,5.5248,5.525,5.5234,5.5226,5.5237,5.5397,5.5401,5.5404,5.5407,0,5.4378,5.4375,5.4469,5.4564,5.4642,5.4717,5.4786,5.4844,5.4839,5.492,5.5037,5.5105,5.5241,5.5353,5.5452,5.5489,5.5448,5.5446,5.548,5.5487,5.548,5.5484,5.5067,5.5436,5.5433,5.5431,5.543,5.5428,5.4615,5.471,5.477,5.4876,5.4926,5.4992,5.5083,5.5106,5.5203,5.5311,5.5298,5.5428,5.5493,5.5622,5.5666,5.5769,5.5721,5.5771,5.5784,5.5796,5.5808,5.5464,5.5787,5.5786,5.5785,5.5785,5.5784,0,5.4939,5.4974,5.5072,5.5169,5.5252,5.5203,5.5277,5.5351,5.5465,5.5527,5.5614,5.5748,5.5855,5.5891,5.5995,5.607,5.6054,5.6098,5.6092,5.6101,5.5846,5.5805,5.6109,5.6109,5.6109,5.6109,5.6109,5.6109,5.5118,5.5275,5.5279,5.5461,5.5495,5.562,5.5666,5.5726,5.5775,5.5926,5.6014,5.6035,5.6087,5.6194,5.629,5.6298,5.6338,5.639,5.639,5.6152,5.6119,5.6088,5.6049,5.6399,5.64,5.6636,5.6638,5.664]},{"header":{"parameterUnit":"m.s-1","parameterCategory":1,"la1":30.2991,"la2":30.254,"lo1":-89.0895,"lo2":-89.0444,"dy":0.0017,"dx":0.0017,"nx":28,"ny":28,"refTime":"2024-08-18T03:00:00:Z","depth":0,"parameterNumber":3,"parameterNumberName":"V-component_of_WINDS"},"data":[0,0,0,0,0,0,0,0,0,0,0,0,0,0,0,0,0,0,0,0,0,0,0,0,0,0,0,0,0,0,0,0,0,0,0,0,0,0,0,0,0,0,0,0,0,0,0,0,0,0,0,0,0,0,0,0,0,0,2.0204,2.0205,0,2.0277,2.0278,2.0279,2.0237,2.0235,2.0233,2.0231,2.0307,2.0311,2.0315,0,0,0,0,0,0,0,0,0,0,0,0,0,2.0029,2.0032,2.0204,2.0205,2.0206,2.0277,2.0278,2.0279,2.0237,2.0235,2.0232,2.023,2.0306,2.0311,2.0315,0,0,0,0,0,0,0,0,0,0,0,0,0,2.0104,2.0034,2.0204,2.0194,2.0194,2.0277,2.0278,2.0279,2.0238,2.0235,2.0232,2.0229,2.0304,2.031,2.0316,2.0414,0,0,2.0334,2.0337,0,0,0,0,0,0,0,0,2.01,2.011,2.0194,2.0195,2.0194,2.0245,2.0244,2.0324,2.0239,2.0221,2.0231,2.0227,2.0289,2.0296,2.0317,2.0417,2.0421,2.0335,2.0338,2.0341,2.0342,0,0,0,0,0,0,0,2.0095,2.0107,2.0233,2.0196,2.0196,2.0186,2.0193,2.0259,2.0272,2.0222,2.022,2.0229,2.0289,2.0311,2.0318,2.0422,2.0334,2.034,2.0343,2.0346,2.0605,2.0608,0,0,0,0,0,0,2.009,2.0103,2.0231,2.0235,2.0139,2.0191,2.0199,2.0232,2.0271,2.0274,2.0231,2.0227,2.0302,2.0311,2.0321,2.0437,2.0341,2.0346,2.035,2.0602,2.0606,2.0609,0,0,0,0,0,0,2.0086,2.0102,2.0228,2.0168,2.0184,2.0197,2.0234,2.0235,2.0257,2.0277,2.0279,2.0252,2.03,2.0312,2.0391,2.0439,2.0349,2.0354,2.0598,2.0603,2.0608,2.0671,0,0,0,0,0,0,2.0081,2.0101,2.0138,2.0169,2.0187,2.0297,2.0237,2.0238,2.0267,2.0262,2.0297,2.03,2.0299,2.0382,2.0396,2.0445,2.0359,2.0594,2.06,2.0606,2.0665,2.0677,2.0689,0,0,0,0,0,2.0075,2.0154,2.014,2.0156,2.0234,2.03,2.031,2.0306,2.0271,2.0309,2.0322,2.0299,2.0431,2.039,2.0406,2.0458,2.059,2.0598,2.0606,2.0659,2.0675,2.0688,0,0,0,0,0,0,2.0129,2.0158,2.0143,2.0234,2.0264,2.0292,2.034,2.0323,2.0365,2.0358,2.0352,2.036,2.0442,2.0457,2.0411,2.0554,2.0505,2.0516,2.0541,2.0556,2.0568,2.0562,2.0364,0,0,0,0,0,2.0151,2.0201,2.0224,2.0302,2.0318,2.0326,2.0355,2.0349,2.0381,2.0394,2.0412,2.0444,2.0493,2.0525,2.0571,2.0666,2.0673,2.0709,2.0721,2.0731,2.0741,2.0792,2.0808,2.0634,2.0634,2.0634,0,0,2.0197,2.0219,2.0252,2.0313,2.0336,2.0389,2.0338,2.0396,2.0435,2.0403,2.0478,2.0492,2.0527,2.0614,2.0654,2.063,2.079,2.0741,2.0748,2.0753,2.0801,2.0817,2.0832,2.0639,2.0638,2.0638,0,0,2.0309,2.0331,2.0398,2.0422,2.0457,2.0462,2.0478,2.0508,2.0516,2.0591,2.0568,2.0614,2.0698,2.0723,2.0748,2.0867,2.0848,2.0882,2.0945,2.0994,2.1008,2.102,2.1062,2.1078,2.0892,2.0892,2.0892,0,2.0363,2.0441,2.0435,2.0494,2.0521,2.0494,2.0561,2.0585,2.0633,2.0653,2.0625,2.0729,2.0751,2.0843,2.0872,2.0893,2.091,2.0879,2.1006,2.1019,2.103,2.107,2.1086,2.0896,2.0895,2.0895,2.0895,0,2.0505,2.0559,2.0609,2.0656,2.0689,2.0752,2.0755,2.0789,2.078,2.0787,2.0863,2.0888,2.0938,2.0959,2.0952,2.105,2.1034,2.1007,2.0958,2.105,2.1088,2.1103,2.0902,2.09,2.0899,2.0898,0,0,2.0654,2.0695,2.0713,2.0733,2.0769,2.0812,2.0873,2.0921,2.095,2.0984,2.1035,2.1106,2.108,2.1108,2.1102,2.1146,2.1238,2.1113,2.1114,2.1135,2.1347,2.1368,2.1386,2.1225,2.1228,2.123,2.1344,0,2.0768,2.0875,2.087,2.097,2.102,2.0994,2.1047,2.1075,2.1083,2.1127,2.1136,2.1186,2.1149,2.1165,2.1206,2.1218,2.1281,2.121,2.1273,2.1275,2.1265,2.1406,2.1428,2.1535,2.1359,2.1361,2.1363,0,2.0915,2.0953,2.1058,2.1086,2.1106,2.1155,2.1198,2.1239,2.127,2.1273,2.1302,2.129,2.1351,2.1301,2.1385,2.1337,2.1362,2.1372,2.1376,2.1382,2.1325,2.1416,2.1568,2.1585,2.1387,2.1385,2.1383,0,2.1013,2.109,2.1163,2.1181,2.1215,2.1249,2.1265,2.1292,2.1321,2.1359,2.1377,2.1422,2.1446,2.148,2.148,2.1443,2.1566,2.1515,2.157,2.157,2.1597,2.1596,2.1757,2.1613,2.1613,2.1613,2.1613,0,2.1141,2.1206,2.1207,2.1252,2.1324,2.1317,2.1389,2.1401,2.1425,2.1472,2.1452,2.1496,2.1492,2.1536,2.1536,2.1606,2.1617,2.1621,2.162,2.1623,2.1623,2.164,2.1633,2.1617,2.1616,2.1615,2.1615,0,2.1263,2.1266,2.1343,2.1368,2.1376,2.1428,2.1449,2.1492,2.1497,2.1556,2.157,2.1579,2.163,2.1633,2.1692,2.1691,2.1776,2.1767,2.1766,2.1764,2.1819,2.1814,2.1997,2.2021,2.1862,2.1863,2.1865,0,2.1344,2.1394,2.1424,2.1453,2.147,2.1518,2.1547,2.1542,2.1573,2.161,2.1648,2.1697,2.1736,2.1818,2.183,2.1875,2.1867,2.1928,2.1874,2.1874,2.1868,2.1865,2.1869,2.1939,2.194,2.1942,2.1943,0,2.1489,2.1487,2.1529,2.1572,2.1607,2.164,2.1671,2.1696,2.1695,2.173,2.1782,2.1812,2.1871,2.192,2.1963,2.1979,2.1961,2.196,2.1975,2.1978,2.1976,2.1978,2.1795,2.1956,2.1955,2.1954,2.1953,2.1952,2.1593,2.1635,2.1662,2.171,2.1732,2.1761,2.1802,2.1812,2.1855,2.1902,2.1897,2.1954,2.1982,2.2037,2.2057,2.2101,2.208,2.2102,2.2108,2.2113,2.2119,2.1968,2.2109,2.2109,2.2108,2.2108,2.2108,0,2.1736,2.1752,2.1795,2.1839,2.1876,2.1854,2.1887,2.192,2.197,2.1997,2.2035,2.2094,2.2141,2.2156,2.2201,2.2233,2.2226,2.2245,2.2243,2.2247,2.2135,2.2118,2.225,2.225,2.225,2.225,2.225,2.225,2.1815,2.1885,2.1886,2.1967,2.1983,2.2038,2.2058,2.2085,2.2107,2.2173,2.2211,2.222,2.2243,2.2289,2.2331,2.2334,2.2351,2.2374,2.2374,2.2269,2.2255,2.2241,2.2225,2.2378,2.2378,2.2482,2.2483,2.2484]}]]